Regional Weather Roundup
Issued by NWS

Home | Current Version | Previous Version | Graphics & Text | Print | Product List | Glossary On
Versions: 1 2 3 4 5 6 7 8 9 10 11 12 13 14 15 16 17 18 19 20 21 22 23 24 25 26 27 28 29 30 31 32 33 34 35 36 37 38 39 40 41 42 43 44 45 46 47 48 49 50
000
ASUS43 KIND 241659
RWRIN

WEATHER ROUNDUP FOR INDIANA
NATIONAL WEATHER SERVICE INDIANAPOLIS IN
100 PM EDT THU APR 24 2014

NOTE: "FAIR" INDICATES FEW OR NO CLOUDS BELOW 12,000 FEET WITH NO
SIGNIFICANT WEATHER AND/OR OBSTRUCTIONS TO VISIBILITY.

* - STATION DOES NOT REPORT WEATHER SUCH AS PRECIPITATION OR FOG.

+ - STATION NOT QUALITY CONTROLLED BY THE NATIONAL WEATHER SERVICE.
    USE DATA WITH CAUTION...ESPECIALLY DEWPOINT AND RELATIVE
    HUMIDITY OBSERVATIONS.

INZ001>003-010>013-019-020-241800-
NORTHWEST INDIANA

CITY           SKY/WX    TMP DP  RH WIND       PRES   REMARKS
GARY /AIRPORT/ CLOUDY    61  32  33 SE17G36   29.93F
MONTICELLO +   PTSUNNY   59  32  35 SE14G23   29.96F
VALPARAISO     CLOUDY    58  28  32 SE22G28   29.95F

$$

LMZ046-743>745-241800-
SOUTHERN LAKE MICHIGAN

STATION/POSITION TIME  TEMP WIND        PRES
                       AIR  DIR/SP/G
                 (UTC) (F)  (DEG/KT/KT) (MB)
MICHIGAN CITY    1600   57  110/ 13/ 21   N/A

$$

INZ004-005-014>016-021>024-241800-
NORTH CENTRAL INDIANA

CITY           SKY/WX    TMP DP  RH WIND       PRES   REMARKS
GOSHEN         PTSUNNY   59  23  25 SE21G30   30.01F
SOUTH BEND     CLOUDY    60  23  24 SE23G31   30.00F

$$

INZ006>009-017-018-025>027-241800-
NORTHEAST INDIANA

CITY           SKY/WX    TMP DP  RH WIND       PRES   REMARKS
ANGOLA *+      MOSUNNY   54  25  32 SE16      30.06F
FORT WAYNE     PTSUNNY   57  22  25 SE18G25   30.05F

$$

INZ028-029-035-036-043>045-051>053-241800-
WEST CENTRAL INDIANA

CITY           SKY/WX    TMP DP  RH WIND       PRES   REMARKS
GREENCASTLE +  MOSUNNY   61  37  41 SE15G22   29.95F
LAFAYETTE      MOSUNNY   60  34  37 SE15G22   29.94F
TERRE HAUTE    PTSUNNY   64  37  36 S17G25    29.92F

$$

INZ030>032-037>040-046>048-054>057-064-065-241800-
CENTRAL INDIANA

CITY           SKY/WX    TMP DP  RH WIND       PRES   REMARKS
ANDERSON       SUNNY     59  25  27 SE17G23   30.02F
COLUMBUS       MOSUNNY   61  36  39 MISG      30.00F
INDIANAPOLIS   PTSUNNY   59  35  40 E17G24    29.97F
-EAGLE CREEK   MOSUNNY   59  33  37 SE14G25   29.97F
KOKOMO *+      MOSUNNY   61  28  29 SE24G31   29.98F
MT COMFORT *+  MOSUNNY   61  30  31 SE16G22   30.00F
SHELBYVILLE    MOSUNNY   62  32  32 SE18G24   29.99F

$$

INZ033-034-041-042-049-050-058-059-241800-
EAST CENTRAL INDIANA

CITY           SKY/WX    TMP DP  RH WIND       PRES   REMARKS
MUNCIE         MOSUNNY   58  21  24 SE18G26   30.01F

$$

INZ060-061-067>069-081>083-085>088-241800-
SOUTHWEST INDIANA

CITY           SKY/WX    TMP DP  RH WIND       PRES   REMARKS
EVANSVILLE     SUNNY     68  38  33 SE9       29.92F
HUNTINGBURG *+ SUNNY     66  41  39 S7        29.94F

$$

INZ062-063-066-070>080-084-089>092-241800-
SOUTH CENTRAL AND SOUTHEAST INDIANA

CITY           SKY/WX    TMP DP  RH WIND       PRES   REMARKS
BLOOMINGTON    MOSUNNY   62  35  36 SE16G24   29.96F

$$




USA.gov is the U.S. government's official web portal to all federal, state and local government web resources and services.